This is the latest recevied weather packets stored in our database for station/object OE1HTB-13. If no packets are shown the sender has not sent any weather packets the latest 1 day(s).
| Time | Temp. | Humidity | Pressure | Rain* | Wind** | Luminosity | Snow |
|---|---|---|---|---|---|---|---|
| 1777980672 | 26.67° C | 31% | 1005.5 hPa | 0 mm | 2.68 m/s, 150° | 810 W/m² | - |
| 1777979772 | 26.11° C | 36% | 1005.6 hPa | 0 mm | 3.13 m/s, 91° | 826 W/m² | - |
| 1777978872 | 25.56° C | 41% | 1005.9 hPa | 0 mm | 1.79 m/s, 90° | 835 W/m² | - |
| 1777977972 | 25.56° C | 41% | 1006.2 hPa | 0 mm | 2.24 m/s, 109° | 838 W/m² | - |
| 1777977072 | 23.89° C | 40% | 1006.4 hPa | 0 mm | 2.24 m/s, 103° | 844 W/m² | - |
| 1777976172 | 23.33° C | 46% | 1006.8 hPa | 0 mm | 2.68 m/s, 171° | 847 W/m² | - |
| 1777975272 | 22.22° C | 48% | 1007 hPa | 0 mm | 2.24 m/s, 128° | 821 W/m² | - |
| 1777974372 | 21.11° C | 50% | 1007.1 hPa | 0 mm | 3.13 m/s, 34° | 701 W/m² | - |
| 1777973472 | 21.11° C | 50% | 1007.4 hPa | 0 mm | 1.79 m/s, 131° | 687 W/m² | - |
| 1777972572 | 20° C | 52% | 1007.5 hPa | 0 mm | 1.34 m/s, 141° | 768 W/m² | - |
| 1777971671 | 20° C | 50% | 1007.7 hPa | 0 mm | 1.79 m/s, 89° | 708 W/m² | - |
| 1777970771 | 20° C | 54% | 1007.7 hPa | 0 mm | 1.79 m/s, 63° | 756 W/m² | - |
| 1777969872 | 18.89° C | 53% | 1007.7 hPa | 0 mm | 1.79 m/s, 55° | 710 W/m² | - |
| 1777968971 | 19.44° C | 56% | 1007.8 hPa | 0 mm | 1.79 m/s, 153° | 708 W/m² | - |
| 1777968071 | 18.89° C | 57% | 1007.8 hPa | 0 mm | 1.79 m/s, 90° | 654 W/m² | - |
| 1777967170 | 18.89° C | 56% | 1007.8 hPa | 0 mm | 1.79 m/s, 112° | 629 W/m² | - |
| 1777966271 | 17.78° C | 55% | 1007.9 hPa | 0 mm | 1.34 m/s, 125° | 601 W/m² | - |
| 1777965371 | 17.22° C | 61% | 1007.9 hPa | 0 mm | 0.89 m/s, 46° | 547 W/m² | - |
| 1777964470 | 15.56° C | 66% | 1008 hPa | 0 mm | 0.89 m/s, 103° | 394 W/m² | - |
| 1777963570 | 15° C | 65% | 1008 hPa | 0 mm | 0.89 m/s, 108° | 192 W/m² | - |
| 1777962670 | 15.56° C | 65% | 1007.8 hPa | 0 mm | 0.89 m/s, 119° | 162 W/m² | - |
| 1777961770 | 15° C | 65% | 1007.8 hPa | 0 mm | 0.89 m/s, 90° | 239 W/m² | - |
| 1777960870 | 15° C | 65% | 1007.8 hPa | 0 mm | 0.45 m/s, 103° | 137 W/m² | - |
| 1777959976 | 15° C | 65% | 1007.6 hPa | 0 mm | 0.45 m/s, 109° | 128 W/m² | - |
| 1777959074 | 15° C | 64% | 1007.6 hPa | 0 mm | 0.45 m/s, 85° | 142 W/m² | - |
* Rain latest hour (hover to see other rain measurements)
** Current wind speed in m/s (hover to see current wind gust speed)